This is the latest recevied weather packets stored in our database for station/object N0FDH. If no packets are shown the sender has not sent any weather packets the latest 10 day(s).
| Time | Temp. | Humidity | Pressure | Rain* | Wind** | Luminosity | Snow |
|---|---|---|---|---|---|---|---|
| 1777821361 | 16.11° C | 51% | 1005.5 hPa | 0 mm | - | 466 W/m² | - |
| 1777821057 | 16.11° C | 49% | 1005.5 hPa | 0 mm | - | 438 W/m² | - |
| 1777820754 | 15.56° C | 47% | 1005.4 hPa | 0 mm | - | 374 W/m² | - |
| 1777820450 | 15.56° C | 48% | 1005.5 hPa | 0 mm | - | 295 W/m² | - |
| 1777820148 | 15.56° C | 49% | 1005.5 hPa | 0 mm | - | 298 W/m² | - |
| 1777819845 | 15.56° C | 53% | 1005.7 hPa | 0 mm | - | 367 W/m² | - |
| 1777819542 | 15° C | 50% | 1005.6 hPa | 0 mm | - | 263 W/m² | - |
| 1777819240 | 15° C | 50% | 1005.7 hPa | 0 mm | - | 267 W/m² | - |
| 1777818936 | 15° C | 51% | 1005.4 hPa | 0 mm | - | 291 W/m² | - |
| 1777818632 | 15° C | 51% | 1005.4 hPa | 0 mm | - | 286 W/m² | - |
| 1777818331 | 15° C | 51% | 1005.4 hPa | 0 mm | - | 254 W/m² | - |
| 1777818026 | 15° C | 53% | 1005.5 hPa | 0 mm | - | 130 W/m² | - |
| 1777817723 | 14.44° C | 51% | 1005.5 hPa | 0 mm | - | 175 W/m² | - |
| 1777817421 | 14.44° C | 50% | 1005.6 hPa | 0 mm | - | 209 W/m² | - |
| 1777817117 | 13.89° C | 54% | 1005.6 hPa | 0 mm | - | 173 W/m² | - |
| 1777816814 | 13.89° C | 54% | 1005.5 hPa | 0 mm | - | 91 W/m² | - |
| 1777816512 | 13.33° C | 54% | 1005.6 hPa | 0 mm | - | 50 W/m² | - |
| 1777816208 | 13.33° C | 53% | 1005.5 hPa | 0 mm | - | 83 W/m² | - |
| 1777815906 | 13.33° C | 54% | 1005.4 hPa | 0 mm | - | 99 W/m² | - |
| 1777815603 | 13.33° C | 53% | 1005.5 hPa | 0 mm | - | 123 W/m² | - |
| 1777815300 | 12.78° C | 54% | 1005.5 hPa | 0 mm | - | 111 W/m² | - |
| 1777814997 | 12.78° C | 54% | 1005.6 hPa | 0 mm | - | 114 W/m² | - |
| 1777814694 | 12.78° C | 52% | 1005.6 hPa | 0 mm | - | 70 W/m² | - |
| 1777814390 | 12.78° C | 56% | 1005.5 hPa | 0 mm | - | 59 W/m² | - |
| 1777814087 | 12.78° C | 56% | 1005.6 hPa | 0 mm | - | 47 W/m² | - |
* Rain latest hour (hover to see other rain measurements)
** Current wind speed in m/s (hover to see current wind gust speed)